Location: Livorno
(43.5500°N, 10.3170°E)
Time: 00:26:05
(UTC+02:00)

ISS - Pass Details

Date: 17 May 2026
Orbit: 413 x 422 km, 51.6° (Epoch: 7 June)

Event Time Altitude Azimuth Distance (km) Brightness Sun altitude
Rises 23:23:58 0° 304° (WNW) 2,352 1.1 -22.0°
Reaches altitude 10° 23:26:09 10° 312° (NW) 1,489 0.0 -22.2°
Maximum altitude 23:29:18 38° 23° (NNE) 653 -2.5 -22.4°
Enters shadow 23:29:22 38° 26° (NNE) 654 -2.6 -22.5°
